Theta_e
333 334 334 334 333 332 332 332 333 329 327 329 329 325 325 330 331 327 323 322 325 329 331 331 330 330 330 330 327 327 329 328 328 327 327 326 326 328 327 326 325 325 324 323 322 320 318 316 314 313 312 310 309 309 308 308 307 307 306 306 305 305 305 305 305 306 306 306 307 307 307 307 307 307 308 308 308 308 308 308 308 308 308 308 307
333 334 333 332 332 333 332 332 332 331 332 332 331 331 330 330 329 324 323 325 326 330 331 330 330 329 329 330 329 327 327 326 328 328 326 326 326 328 328 327 325 325 325 324 323 322 320 318 315 313 312 311 310 309 309 308 308 308 308 307 306 305 305 305 305 305 305 306 306 306 307 307 307 307 307 308 308 308 308 308 308 308 308 308 307
333 334 333 333 334 334 334 333 333 333 333 333 332 333 329 327 325 323 327 330 330 332 332 331 330 329 329 330 329 328 327 325 328 329 326 325 328 330 329 327 326 325 325 325 325 324 321 318 316 314 313 312 311 311 310 310 309 309 308 308 307 306 306 305 305 305 305 305 305 305 306 306 307 307 307 308 308 308 308 308 308 308 308 308 307
334 334 334 335 335 334 335 335 334 333 334 333 332 330 324 323 324 326 331 332 332 333 332 331 331 330 329 329 329 329 329 326 327 327 326 327 328 329 328 328 327 325 325 326 327 325 322 318 316 315 313 312 311 311 310 310 310 310 309 308 308 307 307 306 305 305 305 305 305 305 305 305 306 307 307 307 307 308 308 308 308 308 308 307 307
335 334 335 335 334 333 334 335 334 333 332 329 326 324 323 325 327 330 332 334 334 333 333 331 330 331 330 330 329 329 330 327 325 325 326 326 325 327 328 328 328 326 325 326 327 326 323 320 319 317 314 312 310 310 309 309 309 309 309 309 308 308 307 307 306 305 305 304 304 304 304 305 305 306 307 307 308 308 308 308 308 307 307 307 307
334 333 334 333 333 334 334 334 334 332 328 325 324 325 327 330 329 329 331 333 333 333 334 332 331 332 331 331 331 329 329 327 326 326 326 326 325 326 328 328 329 328 326 325 326 327 325 324 323 321 318 315 314 314 312 309 309 308 308 308 308 308 308 307 307 306 305 304 304 304 304 305 305 306 307 307 307 307 308 307 307 307 307 307 307
330 330 331 331 331 332 333 334 332 329 327 326 327 329 331 332 330 330 331 332 332 333 333 332 332 333 332 330 329 328 327 327 328 327 327 327 326 326 326 327 329 330 328 325 324 326 327 326 325 325 324 320 317 318 318 314 311 309 308 307 307 307 308 308 307 306 305 304 304 304 304 305 306 307 307 307 307 307 307 307 307 307 307 307 307
327 325 329 330 328 329 331 332 330 328 328 328 330 333 334 332 331 332 331 332 333 333 333 332 331 332 332 329 327 327 327 328 329 328 328 327 326 326 326 328 329 329 329 328 325 323 326 327 326 327 328 326 322 321 322 320 317 313 311 309 308 307 307 307 307 306 304 304 304 304 305 306 307 307 307 307 307 307 307 307 307 307 307 308 308
328 327 329 329 328 329 330 330 329 329 328 329 332 334 334 333 333 334 332 333 333 332 333 333 332 331 332 331 329 329 328 328 329 329 329 327 327 327 327 328 328 328 329 328 327 323 323 326 326 327 328 328 327 326 325 324 322 320 316 313 311 309 308 307 306 305 304 304 304 305 306 307 307 307 307 307 307 307 307 308 308 310 311 311 312
331 330 330 328 328 329 330 331 330 329 328 329 333 334 333 333 334 334 333 333 332 332 333 333 333 333 333 331 330 330 329 329 329 328 328 327 327 327 327 328 328 328 328 328 328 325 322 323 325 326 326 327 328 328 328 327 326 325 322 318 314 312 311 309 306 305 305 305 306 307 307 308 308 307 307 307 307 308 309 311 313 315 317 318 319
331 330 330 328 328 330 330 330 329 329 327 329 333 335 333 331 332 332 333 333 332 333 333 333 333 332 331 330 330 330 329 329 328 327 328 327 326 328 329 328 328 327 328 328 327 326 326 326 326 325 325 326 327 328 328 328 327 328 327 324 321 316 313 311 309 308 308 308 308 308 308 308 308 308 308 310 311 314 316 318 320 321 322 323 323
330 330 330 328 329 329 329 329 326 327 327 328 332 334 333 331 331 332 332 332 332 332 332 332 332 331 331 330 330 330 329 329 328 327 328 327 327 328 328 328 328 327 328 328 327 327 327 327 328 326 324 325 326 326 325 326 327 328 328 328 325 322 317 312 311 310 309 309 309 309 309 309 310 311 315 318 320 322 322 323 323 324 324 324 324
331 330 328 328 329 328 329 329 326 326 327 328 332 334 332 330 330 330 330 330 331 331 331 332 332 331 330 330 329 329 329 329 328 328 327 327 328 329 327 328 328 328 328 328 327 327 327 327 328 327 325 324 325 324 322 324 326 327 328 327 327 326 321 315 311 311 309 309 310 311 311 312 314 319 322 324 324 324 324 324 324 324 324 324 324
330 330 329 328 329 328 328 328 326 327 328 329 333 334 332 330 329 328 328 328 329 330 330 332 331 330 330 329 329 329 329 329 329 329 328 327 328 328 327 328 329 328 328 328 327 327 327 327 328 327 326 326 326 324 323 324 326 326 326 326 327 327 325 319 314 312 312 312 313 315 316 318 321 323 324 324 324 324 324 324 324 324 324 324 324
330 330 328 327 328 329 328 326 328 329 330 331 333 333 331 330 329 328 329 329 330 330 329 331 331 330 330 330 329 329 330 329 328 328 329 328 328 328 327 328 328 328 328 328 328 328 328 328 328 327 327 326 326 326 325 325 326 326 325 325 326 326 326 324 318 314 315 316 318 320 321 321 323 324 324 324 324 324 323 323 322 322 323 324 324
330 327 327 327 327 328 328 328 329 330 331 332 331 330 330 329 329 329 331 331 331 330 329 330 330 330 330 330 330 329 330 330 329 328 329 329 329 329 328 328 328 328 328 327 327 328 328 328 328 327 327 326 326 326 326 325 325 325 325 324 325 325 326 326 321 317 318 319 321 322 321 321 322 323 324 323 323 323 323 323 322 323 323 323 322
327 326 327 328 327 329 329 329 330 331 331 331 329 329 329 329 329 330 332 332 332 331 329 329 330 330 330 330 330 330 330 330 329 329 329 329 329 329 328 328 328 328 328 328 327 328 328 328 327 327 326 326 326 326 326 325 325 325 324 324 324 325 326 326 324 321 320 321 322 322 322 322 322 323 323 323 322 323 323 323 324 323 321 316 313
327 328 329 329 328 329 328 328 330 330 329 329 329 330 329 329 329 330 331 331 331 331 330 329 329 329 329 329 329 330 330 330 329 329 329 329 329 329 329 328 328 328 328 328 328 328 328 327 326 327 327 326 326 326 326 326 326 325 324 324 324 324 325 326 325 324 322 322 323 323 323 324 323 324 324 323 323 323 323 323 323 319 312 308 306
328 329 330 330 329 329 328 329 331 329 328 329 329 330 330 330 330 329 330 331 330 331 330 329 328 329 329 329 328 328 329 330 330 329 328 329 329 328 328 328 328 328 328 328 328 328 327 327 326 327 327 327 326 326 326 326 326 325 324 324 323 323 325 326 326 325 324 324 324 324 324 324 324 324 324 324 324 323 321 319 315 310 306 306 307
329 328 329 329 329 330 329 331 331 329 329 329 328 329 330 330 330 329 330 330 330 330 329 329 330 330 329 329 328 327 327 329 329 329 328 329 329 328 328 328 328 328 328 328 328 327 327 327 327 326 326 326 326 326 326 325 325 325 323 322 322 323 324 325 325 325 324 324 324 324 324 325 324 323 322 321 319 316 313 310 308 307 307 308 308
330 330 330 330 331 331 329 330 331 330 330 330 329 329 329 330 330 330 330 330 328 328 329 330 331 331 329 329 328 327 327 328 329 329 329 329 329 328 328 328 328 328 328 327 327 326 326 327 327 326 325 325 326 326 325 325 324 323 322 322 323 323 323 324 324 324 324 324 324 324 324 322 320 317 314 312 309 308 307 307 308 308 308 308 307
331 332 331 331 332 331 329 330 331 331 330 331 331 329 329 329 328 328 328 328 327 327 328 329 330 330 330 329 328 328 327 328 328 328 328 329 329 328 328 327 327 327 327 326 325 324 325 326 327 326 325 325 325 325 325 324 323 322 322 322 322 322 323 324 324 324 323 322 321 319 316 313 310 308 307 307 307 307 308 308 308 307 306 305 305
331 331 331 330 331 330 330 329 329 329 328 329 330 329 328 328 327 327 326 326 326 326 327 328 328 329 330 329 327 327 327 328 328 328 328 328 329 328 328 328 328 327 327 326 326 325 325 326 327 326 325 325 324 324 324 323 323 322 322 322 322 322 322 321 319 318 316 312 310 309 308 307 307 307 307 308 308 307 307 307 306 305 305 304 303
330 331 331 329 329 329 329 327 327 328 327 326 327 327 326 326 324 325 326 325 325 326 327 328 327 327 329 328 327 327 328 328 328 328 327 328 328 328 328 328 328 327 326 327 327 326 326 326 326 325 325 324 324 323 323 323 322 322 322 321 320 318 315 312 310 308 307 307 306 307 307 308 308 308 307 307 307 306 305 305 304 304 303 303 303
330 330 328 328 328 327 328 327 326 328 327 325 327 327 326 326 324 322 324 325 326 326 326 326 326 325 327 327 327 327 328 327 327 327 327 327 328 328 327 328 327 327 327 326 326 326 325 325 326 325 324 323 323 323 323 322 322 321 320 318 313 310 308 307 307 307 307 307 308 308 308 308 307 306 306 305 305 304 304 304 304 304 304 303 303
329 328 327 327 327 326 327 328 326 327 327 325 326 326 325 327 326 322 323 326 326 326 325 325 324 325 326 326 326 327 327 327 327 327 327 327 328 327 327 327 326 326 326 325 325 326 325 325 325 324 323 323 323 323 322 321 321 320 318 314 309 308 308 308 308 308 309 308 308 308 307 306 305 305 305 305 305 305 305 305 304 304 303 303 303
329 328 327 328 327 325 326 326 324 323 323 322 322 322 324 327 325 322 324 326 326 325 325 325 324 325 325 326 326 326 327 327 327 327 326 327 327 327 327 327 325 325 325 324 324 324 324 324 324 323 322 322 322 322 321 321 320 317 313 310 308 308 308 308 309 309 308 307 307 306 305 305 305 306 306 307 307 307 306 305 304 304 303 302 302
329 327 327 327 325 323 323 320 317 316 315 319 320 321 325 326 323 323 324 325 325 324 325 325 325 325 325 326 325 325 326 327 327 327 327 327 327 327 326 325 324 324 323 323 323 323 324 324 323 322 321 320 320 321 320 319 317 313 309 308 308 308 308 308 308 307 306 306 305 306 306 307 308 308 308 308 308 307 306 305 304 303 302 302 302
328 325 325 326 323 322 319 312 310 310 313 321 323 322 325 323 320 322 324 324 324 324 324 325 325 325 325 326 326 325 326 326 326 327 327 327 327 327 326 325 323 323 323 323 322 322 323 322 321 321 320 319 319 318 315 313 311 308 307 307 307 308 308 307 306 306 306 306 307 308 309 309 310 310 310 309 308 307 306 304 303 303 302 302 302
325 324 325 326 326 323 316 307 307 309 315 324 324 323 325 323 322 324 324 323 323 324 324 323 323 325 326 327 327 325 325 326 327 327 327 327 325 324 324 323 323 322 322 322 322 322 322 321 320 320 319 317 317 313 309 308 307 306 306 307 307 308 307 306 306 307 308 309 310 310 311 311 311 311 311 310 309 308 306 304 303 303 302 302 302
322 325 326 326 325 321 311 306 310 315 320 324 323 323 325 324 324 325 323 322 323 324 323 321 322 325 327 327 328 327 326 326 327 326 326 325 323 323 322 322 322 322 322 321 320 320 321 320 320 319 315 313 312 309 307 306 306 305 306 307 308 308 307 307 308 309 310 311 311 311 311 312 312 312 311 311 310 308 306 305 304 303 303 302 302
322 324 326 324 322 318 311 310 315 321 323 322 322 324 323 322 323 322 321 322 322 322 322 322 323 324 326 328 328 328 327 327 327 325 323 323 322 322 321 321 321 321 321 320 319 319 319 318 318 317 313 311 311 310 308 306 305 305 306 307 308 308 308 308 310 310 311 311 312 312 312 312 312 312 312 311 310 308 307 306 305 304 304 303 302
320 323 326 323 320 319 318 317 320 323 322 321 323 323 321 321 322 321 319 320 320 321 322 324 324 323 325 328 328 328 328 327 326 323 321 322 321 320 320 320 321 320 320 320 319 318 317 317 316 315 313 312 312 311 308 306 305 305 306 308 308 308 308 309 310 310 311 311 312 312 312 312 312 312 312 311 310 309 308 307 307 306 306 305 304
320 325 326 322 321 322 321 321 322 322 322 322 323 322 321 322 322 320 318 319 320 320 321 323 324 324 325 328 328 328 328 326 324 322 321 321 320 319 318 319 319 319 319 320 319 318 317 316 315 314 313 312 312 311 309 306 305 306 307 308 308 309 309 309 310 310 310 311 311 311 312 312 312 312 312 311 311 310 310 309 309 308 308 307 305
322 327 325 322 322 321 320 320 320 321 323 323 322 322 322 321 319 318 319 320 320 320 321 323 323 324 325 327 328 328 327 325 323 322 321 320 320 319 319 318 318 317 318 319 319 317 317 315 314 314 312 310 311 311 310 309 308 308 309 308 309 309 309 309 309 309 309 310 311 312 312 312 312 312 312 312 312 311 311 311 310 310 309 308 306
324 327 323 322 322 321 319 319 318 320 323 323 322 322 321 318 317 318 320 320 319 320 322 322 323 323 325 327 328 327 326 324 323 322 320 320 320 319 319 319 318 317 318 318 317 317 316 314 313 313 312 310 311 312 311 311 310 310 310 310 309 309 309 310 310 310 310 310 311 312 312 312 312 312 312 312 312 312 312 311 311 310 309 309 307
324 325 322 322 322 321 319 318 318 320 322 322 322 321 318 316 318 319 320 320 320 321 321 321 322 323 323 325 326 325 324 323 323 322 321 321 320 319 320 320 319 318 318 318 318 317 315 313 313 313 313 311 311 312 312 312 312 311 311 311 310 310 311 311 312 312 312 312 312 312 312 312 312 312 312 312 312 312 312 311 311 310 310 309 307
323 323 323 323 322 321 319 318 318 320 320 320 320 318 316 317 319 320 320 320 321 321 320 321 322 322 322 323 323 323 323 322 322 322 322 321 320 320 321 320 320 320 318 318 319 318 316 315 314 314 314 313 312 313 313 313 313 312 312 312 311 311 312 312 312 313 313 313 312 312 312 312 312 312 312 312 312 312 312 312 311 311 310 309 307
323 323 323 323 322 321 319 318 318 319 319 320 319 318 319 319 320 320 321 321 320 320 320 320 320 321 322 322 322 322 322 322 322 322 322 321 320 321 320 320 320 320 319 318 318 318 318 317 316 316 315 314 314 314 314 313 314 314 313 312 312 313 313 312 312 313 314 313 312 312 312 312 312 312 312 312 312 312 312 312 312 311 309 308 305
322 323 323 322 321 321 319 318 318 318 319 319 319 320 320 320 320 320 320 320 320 320 321 321 320 320 320 320 321 321 322 322 322 322 322 321 321 320 319 319 319 319 320 319 318 319 319 319 318 318 317 316 315 314 314 314 314 314 314 313 313 313 314 313 314 314 314 313 313 313 313 313 312 312 312 312 312 312 312 311 311 309 308 307 304
321 321 322 321 320 320 319 318 317 318 319 320 320 320 320 320 320 320 320 320 321 321 322 322 322 322 321 321 320 320 320 321 321 321 321 320 320 320 319 319 319 319 320 320 320 320 320 319 319 319 318 317 316 315 315 315 315 314 314 314 314 314 314 314 314 314 314 314 314 314 314 314 313 312 312 311 311 311 311 310 309 309 308 308 306
320 320 321 320 320 320 319 318 318 318 319 320 320 320 320 320 320 320 320 320 321 321 322 323 322 322 322 322 321 320 319 319 319 319 319 319 319 319 319 319 319 319 319 320 320 320 320 320 320 319 319 318 317 317 316 316 316 315 315 315 314 315 315 314 314 314 314 314 315 315 315 313 312 311 311 310 310 310 309 309 309 309 308 308 306
320 319 319 318 319 320 320 320 320 320 320 320 320 319 319 319 320 321 321 321 321 322 322 323 323 322 322 323 322 321 319 319 318 318 317 317 317 317 317 318 318 319 319 319 320 320 320 320 320 319 319 319 318 318 317 317 317 316 315 315 315 315 315 315 315 315 315 315 315 316 315 313 311 312 312 312 311 311 310 310 309 309 309 308 307
319 319 319 319 320 321 321 321 321 321 320 320 319 318 319 319 320 321 321 321 322 322 322 322 322 322 322 322 322 322 321 318 317 317 317 317 317 317 317 317 317 317 317 317 318 318 319 319 320 320 320 319 319 319 318 317 317 317 316 316 316 316 316 316 316 316 316 316 316 316 315 314 312 313 313 312 312 311 311 311 310 310 309 309 307
319 319 319 319 320 321 321 321 320 320 321 320 319 318 318 318 318 320 322 323 323 322 322 321 321 321 321 321 321 321 321 321 319 318 318 318 317 317 317 317 317 317 317 317 316 317 317 317 318 319 320 320 320 319 318 317 317 317 317 316 316 316 316 316 316 316 316 316 316 316 315 314 313 314 313 312 312 312 312 311 310 309 309 308 306
319 320 320 320 320 320 321 321 320 318 318 318 318 318 318 317 316 316 318 319 321 322 323 322 320 320 321 321 320 320 321 321 321 320 320 319 319 318 317 317 317 317 317 317 317 318 318 318 317 317 318 319 319 319 319 318 317 317 317 317 317 317 316 316 316 317 316 316 316 316 315 314 314 314 314 313 312 312 311 310 309 308 307 306 306
316 319 319 318 317 316 317 317 315 313 312 312 312 313 313 312 311 311 311 311 313 316 320 322 321 321 321 321 321 320 320 320 320 320 321 320 319 318 317 317 317 317 318 318 318 318 318 319 319 318 317 317 317 318 318 318 318 318 317 317 317 317 317 317 316 316 316 316 316 316 315 314 314 314 314 313 312 311 310 308 307 306 306 306 305
312 315 315 314 312 312 313 312 311 310 311 310 309 309 309 310 311 312 312 312 310 310 313 317 319 320 320 320 319 319 318 318 319 320 320 320 320 320 320 318 318 318 318 318 318 318 319 319 320 320 319 318 317 317 317 317 318 318 318 318 317 317 317 317 316 316 316 316 316 315 314 314 314 314 312 311 311 310 308 307 306 306 306 305 304
315 315 313 312 312 311 311 312 311 309 310 310 311 311 311 312 313 313 313 312 311 310 311 315 317 317 317 317 317 317 317 318 319 319 319 319 320 321 320 319 318 319 319 319 318 318 319 319 319 320 320 319 318 317 317 317 317 318 318 318 318 317 317 317 317 316 316 315 315 314 313 313 313 313 311 308 308 308 308 307 306 305 305 304 303
316 314 311 310 310 310 313 315 315 313 312 313 313 313 313 313 313 313 313 313 314 314 315 317 318 318 317 316 317 318 317 318 319 318 318 319 319 319 319 318 318 319 319 319 318 318 319 319 319 320 319 319 318 317 317 318 318 318 318 318 318 317 317 316 315 315 315 315 314 313 313 312 312 311 310 307 306 307 307 306 305 304 303 303 302
314 313 311 311 311 312 314 316 318 317 317 316 315 314 314 314 314 314 314 314 315 316 316 317 317 317 318 318 319 319 318 318 317 317 317 318 318 319 319 319 318 318 318 318 318 318 318 318 319 319 319 318 317 317 318 318 318 318 317 317 316 315 314 314 313 313 314 314 313 312 312 311 310 308 306 306 306 306 305 304 303 303 303 303 303
Wind_Speed
14 14 12 12 10 9 9 8 7 6 8 10 8 9 11 10 9 7 6 7 6 3 2 3 6 10 11 5 2 5 8 9 10 8 7 5 3 2 2 3 3 3 4 5 5 6 5 5 4 4 4 4 5 5 5 5 6 6 7 7 7 7 7 7 7 8 8 9 9 10 10 10 11 11 11 11 11 12 12 12 11 11 11 11 11
13 13 12 11 11 12 14 15 14 12 10 11 11 10 10 12 12 9 7 7 6 6 4 5 7 9 9 6 4 4 7 7 9 10 7 5 4 2 2 3 3 4 4 5 6 6 7 6 6 5 5 5 5 4 4 5 5 5 5 6 6 7 7 7 8 8 8 9 9 9 10 10 10 10 10 11 10 11 11 11 11 11 11 11 11
14 14 13 13 13 13 13 13 13 12 11 10 11 11 10 11 11 10 9 6 5 7 5 8 6 3 2 4 8 7 5 6 8 10 7 5 4 2 1 2 4 4 5 5 7 7 8 8 7 7 6 6 6 5 5 4 4 4 4 5 5 6 7 7 7 8 8 8 8 9 9 9 10 10 10 10 10 10 10 10 10 10 11 10 11
16 16 15 15 15 14 13 12 11 11 11 10 10 10 10 10 10 10 10 8 7 7 6 8 6 4 1 5 6 10 9 6 8 7 5 5 4 3 2 2 4 5 5 6 7 8 9 9 9 9 9 9 8 7 6 5 4 4 4 4 5 6 6 6 7 7 7 7 8 8 8 9 9 9 9 9 9 9 10 10 10 10 10 10 11
17 17 17 17 17 16 14 13 11 11 11 10 9 9 9 9 9 9 9 8 8 6 6 7 6 6 3 5 5 8 9 8 7 6 5 5 4 4 3 2 3 5 6 5 7 8 9 9 11 12 12 12 11 11 10 8 6 5 5 5 5 5 5 6 6 7 7 7 7 7 8 8 8 8 8 9 9 9 10 10 10 11 11 11 12
18 18 16 15 15 14 14 13 11 10 8 8 9 8 8 8 8 8 8 8 7 5 4 5 5 3 4 5 6 7 9 8 7 7 6 5 4 4 3 2 1 4 5 5 5 6 7 8 10 12 12 13 14 14 13 12 10 8 8 6 6 6 5 6 6 6 7 7 8 8 8 8 9 9 9 9 9 10 10 10 11 11 12 12 13
19 18 15 12 12 11 10 10 8 7 7 8 8 7 6 5 7 8 8 7 6 6 6 6 5 3 4 6 6 7 8 8 8 8 7 5 5 4 4 3 3 3 4 5 5 5 6 5 7 8 9 11 12 14 14 14 13 12 10 8 7 7 6 6 6 6 7 7 8 8 9 9 9 9 10 10 10 11 11 12 12 13 14 14 15
19 19 14 12 12 11 9 7 7 8 8 8 8 7 6 6 8 7 8 7 5 7 8 7 6 5 5 6 5 6 7 8 8 8 7 6 5 5 5 4 5 4 3 4 5 5 5 4 5 6 6 7 8 10 12 13 13 14 13 11 10 9 8 7 7 7 7 8 8 9 9 10 10 10 10 11 11 12 13 14 14 15 15 16 16
19 18 14 12 13 13 11 9 10 10 10 10 9 8 7 8 9 7 8 9 8 8 5 4 5 4 4 5 5 5 6 7 7 8 7 6 5 6 5 5 6 5 4 4 5 5 5 5 4 5 5 5 5 5 7 9 11 13 14 13 12 11 9 8 8 8 8 8 9 10 10 10 11 11 12 12 13 14 15 15 16 17 17 17 17
17 16 14 14 14 14 13 12 11 10 10 12 10 9 10 10 10 8 8 9 9 8 5 4 4 5 5 4 5 6 6 7 7 8 7 6 6 5 5 6 6 6 6 5 5 6 5 5 5 5 5 4 4 4 4 5 6 8 11 13 13 12 11 10 9 9 9 9 10 10 11 12 12 13 13 13 14 15 16 17 17 17 17 17 17
17 15 15 15 15 14 14 13 12 10 11 12 9 8 10 11 11 10 8 7 8 9 8 6 5 5 5 5 6 7 7 8 7 7 7 7 6 5 5 6 6 7 7 5 5 6 6 5 5 5 4 4 4 4 4 4 4 4 6 9 11 12 12 11 9 9 10 10 11 11 12 13 14 15 15 16 16 17 17 17 17 16 16 16 16
17 17 17 16 15 14 13 12 12 11 11 11 10 9 10 10 11 10 9 8 9 9 8 8 7 6 6 7 8 6 6 7 7 6 7 7 7 6 6 7 6 6 7 7 6 6 6 6 5 5 4 5 4 3 3 4 4 4 4 5 6 10 11 10 10 10 11 11 12 13 14 15 16 16 17 17 17 16 15 15 15 15 14 14 15
16 16 16 16 15 14 13 12 12 12 11 12 12 11 10 11 10 9 9 8 7 7 8 8 7 7 7 7 7 6 7 7 7 6 6 7 6 5 6 6 7 7 7 8 7 7 7 6 6 5 5 5 4 3 3 4 4 4 5 4 3 5 8 9 10 10 12 13 13 14 15 17 17 17 17 16 15 14 13 13 13 13 13 13 13
16 14 14 15 14 13 13 12 13 12 13 14 12 11 11 10 9 9 9 8 6 7 8 8 7 7 7 8 8 8 7 7 7 6 6 7 6 5 5 6 8 8 8 8 7 7 6 6 6 5 5 5 4 4 4 4 4 4 4 4 4 4 5 7 9 10 12 14 15 15 16 17 17 16 15 14 14 14 13 13 12 12 11 11 11
15 14 14 15 14 12 12 13 13 12 13 13 11 10 10 9 9 8 8 7 5 6 8 8 8 8 8 8 9 9 8 7 7 6 7 8 6 5 5 6 8 8 7 7 6 7 6 5 6 6 6 5 5 4 4 4 4 3 3 4 5 4 4 5 8 10 12 14 15 16 16 16 15 13 12 11 12 12 12 11 10 10 9 9 9
15 14 14 15 14 12 12 13 13 12 11 11 11 10 9 9 9 8 8 8 6 6 8 8 8 8 9 8 7 8 7 7 8 7 7 9 8 6 5 6 7 7 7 7 6 6 6 5 5 5 6 6 5 4 4 4 4 3 3 4 4 4 4 5 8 10 11 12 14 15 14 12 11 10 9 9 9 9 9 9 8 9 8 8 8
14 14 14 15 15 13 15 14 12 11 10 10 10 9 10 9 9 8 9 9 8 7 7 8 9 8 8 7 6 5 6 9 9 8 7 8 8 7 7 6 7 8 7 7 6 5 4 4 5 4 5 4 3 4 4 4 4 4 4 4 4 4 5 6 7 9 10 11 12 12 9 8 9 9 8 7 7 7 8 8 9 10 9 9 9
13 14 14 14 14 14 15 13 11 10 10 11 10 10 10 8 9 9 9 9 9 8 7 9 9 8 7 7 6 5 8 11 9 8 9 9 8 8 7 7 7 9 8 7 6 5 4 3 3 4 4 4 4 3 4 4 4 5 4 4 4 4 5 6 7 8 8 9 9 8 6 6 7 7 6 6 7 8 8 9 9 9 9 9 9
12 13 13 13 14 14 12 11 11 10 10 11 10 10 9 8 9 10 9 9 10 9 8 8 8 7 6 6 6 5 8 11 10 10 11 10 9 8 7 7 7 8 7 7 6 5 5 4 3 3 2 4 4 4 4 4 4 5 4 3 3 3 5 7 8 8 7 8 7 6 4 4 5 6 7 8 9 10 9 9 9 9 9 9 10
12 13 12 11 12 13 12 10 11 10 9 8 8 10 10 9 9 10 9 9 10 10 8 8 8 7 7 7 6 6 9 11 9 10 11 11 10 8 7 8 8 8 7 6 5 5 5 5 4 5 4 4 4 4 5 5 5 6 5 4 4 4 7 8 9 8 7 8 8 7 7 7 8 9 10 10 10 11 10 9 9 9 9 9 9
12 11 10 10 10 11 11 10 10 10 9 8 8 9 9 9 9 8 9 9 9 9 9 9 8 7 8 8 6 7 10 11 9 8 10 11 11 9 9 8 8 7 5 4 4 4 6 6 5 6 5 5 4 4 5 5 5 6 5 5 6 6 8 9 10 10 11 12 12 13 13 13 13 12 12 12 11 11 10 10 10 9 9 9 9
13 11 10 11 11 11 11 11 11 9 8 8 8 8 9 8 8 7 7 8 8 9 10 10 8 6 7 8 8 8 9 10 9 9 9 9 10 10 10 9 8 7 5 4 5 6 8 7 6 6 5 5 5 5 5 6 6 6 6 7 7 8 10 11 13 14 14 15 15 15 15 15 14 13 13 12 11 11 10 10 10 9 9 8 8
14 13 13 13 11 11 11 11 12 10 8 8 7 6 7 8 7 6 6 7 7 8 10 9 8 7 7 7 8 9 9 9 9 9 10 9 9 11 11 9 7 7 7 7 8 9 10 8 6 7 6 5 6 6 6 8 8 8 9 10 11 12 13 14 14 15 15 15 15 15 14 14 14 13 13 12 11 11 10 9 9 8 8 8 8
15 15 15 14 12 12 10 10 12 10 7 8 7 2 3 5 5 6 7 7 6 6 8 8 7 8 8 6 7 8 8 8 8 9 11 10 9 10 12 10 8 8 9 9 10 9 9 8 6 6 6 5 7 8 9 10 10 11 12 14 14 14 14 14 14 15 15 15 15 15 14 14 14 13 13 12 11 10 10 9 8 8 8 8 8
15 15 14 14 12 12 12 10 12 12 8 10 11 7 5 3 3 5 6 6 6 6 6 7 7 7 8 6 7 9 8 8 7 9 11 12 11 11 12 12 11 11 10 9 11 10 7 6 6 6 6 6 8 10 11 12 13 14 15 15 15 14 14 14 15 15 15 15 15 14 15 14 14 14 13 12 11 10 9 9 8 8 7 7 7
13 12 12 12 11 12 13 11 12 14 12 12 14 12 9 4 4 6 7 5 6 6 5 6 6 6 7 8 8 9 9 9 9 8 10 13 14 14 15 14 12 13 12 10 12 12 9 7 6 6 6 6 9 11 11 13 15 15 15 16 16 15 15 14 14 14 13 14 14 15 15 14 14 13 12 11 10 9 9 8 7 6 6 6 6
13 12 13 13 12 13 14 12 12 12 13 12 11 11 10 5 5 5 7 6 6 5 5 6 6 6 8 8 9 10 10 11 10 9 9 12 13 13 14 15 15 14 13 11 11 12 12 10 6 4 5 7 10 12 12 13 14 15 14 15 16 15 14 14 14 14 14 15 15 15 15 14 13 12 11 10 9 8 7 6 6 6 5 5 5
16 15 15 13 12 12 13 13 11 10 10 10 8 10 11 7 5 6 6 6 6 6 6 6 6 7 8 8 9 10 10 11 12 11 9 10 12 11 11 15 18 17 16 14 12 11 11 11 8 5 3 6 10 12 12 13 14 14 14 14 15 15 14 14 14 15 15 15 15 15 14 13 12 11 9 8 7 6 6 5 5 5 5 5 5
16 14 13 11 10 11 11 11 10 9 11 11 8 11 10 6 6 8 7 8 8 7 6 6 6 7 8 9 9 11 11 10 11 12 11 10 11 12 12 14 16 17 17 17 15 12 10 11 13 12 6 3 9 13 12 13 13 13 13 13 13 14 15 15 15 16 16 15 15 14 13 12 10 9 8 7 6 5 5 5 4 5 5 5 5
14 12 12 12 11 11 10 10 10 11 14 11 9 11 9 6 8 8 8 8 8 7 6 4 5 7 8 9 10 11 11 11 12 13 12 11 11 11 11 12 14 16 16 16 15 13 12 14 16 15 10 7 11 14 13 13 12 12 12 12 13 15 16 16 16 16 15 14 13 12 11 10 8 7 6 5 5 4 4 4 4 4 4 4 4
14 14 13 12 12 10 8 10 11 12 13 12 12 12 10 10 9 7 7 7 6 6 4 3 5 7 9 9 9 8 9 12 12 11 11 11 12 13 10 10 14 16 15 15 15 13 13 17 18 13 8 9 12 12 12 12 11 11 12 12 14 15 16 17 17 15 14 12 11 10 9 8 6 5 4 3 3 3 3 3 3 3 4 4 4
16 16 12 10 10 8 7 10 12 12 12 12 12 11 10 10 8 6 7 7 5 5 4 4 4 5 8 10 8 8 9 11 10 10 11 9 10 11 10 8 11 14 14 15 16 13 10 15 17 10 5 8 11 11 11 12 10 11 12 12 14 16 17 17 16 14 13 11 10 9 7 5 4 3 2 1 1 1 2 2 2 3 4 5 5
16 16 11 9 9 8 8 10 11 12 12 12 12 10 9 10 7 5 8 7 4 4 6 6 3 3 7 9 8 9 10 10 11 12 11 8 6 8 9 10 10 10 13 15 16 15 11 10 12 9 7 12 14 12 10 11 11 11 13 13 14 15 16 16 15 13 12 11 9 7 6 4 3 2 1 1 1 1 1 2 3 4 6 7 7
16 15 11 10 10 9 9 9 9 11 11 12 11 10 9 9 7 7 9 7 5 5 6 6 4 4 6 7 9 10 11 12 14 13 11 9 8 7 7 9 10 8 11 16 17 16 14 11 11 12 11 14 16 15 11 11 11 11 13 15 15 15 15 14 13 12 11 11 9 7 6 5 4 3 3 3 3 3 3 4 5 6 7 9 10
16 14 11 12 11 10 9 8 8 10 10 11 10 10 8 8 9 11 9 6 7 7 7 5 5 5 6 7 9 11 12 14 14 10 11 12 8 7 6 9 12 8 7 13 15 13 14 14 13 15 15 15 16 15 13 11 11 11 13 15 15 15 15 14 12 12 12 11 10 8 7 7 6 5 5 5 5 5 6 6 7 8 9 10 11
16 13 11 12 11 10 9 8 8 9 9 10 10 8 7 8 11 10 7 7 9 9 6 6 5 4 7 8 10 12 13 14 12 9 11 10 6 8 8 8 12 11 6 9 10 7 11 15 16 16 15 16 16 16 15 13 12 12 12 13 15 14 14 14 11 10 12 11 10 10 9 9 8 8 7 7 8 8 8 9 10 10 11 12 12
16 13 11 11 10 10 9 8 8 9 9 9 9 8 7 9 11 9 9 10 8 6 7 8 5 4 6 7 8 11 11 11 11 8 8 7 4 7 8 6 9 11 8 11 8 7 10 14 16 15 14 14 17 16 17 15 12 14 14 12 13 13 14 13 10 10 12 12 11 11 11 11 10 10 10 10 10 11 11 11 12 12 12 13 14
14 12 11 11 10 9 9 8 8 9 9 9 9 8 9 11 11 9 10 9 6 7 9 9 6 6 8 7 6 9 9 8 10 8 6 7 5 5 7 6 5 7 7 10 10 7 10 11 12 13 14 14 14 15 18 17 12 15 16 15 12 11 13 17 16 13 12 13 14 14 13 13 13 13 13 13 13 13 13 13 13 14 14 14 14
14 12 10 11 10 9 9 8 8 9 9 9 9 9 10 11 11 10 11 9 7 8 8 6 8 9 8 7 6 7 8 8 9 8 7 8 7 6 7 6 4 4 4 6 8 7 8 9 10 12 13 14 13 13 15 17 14 13 17 19 17 11 13 20 23 19 16 17 17 18 18 19 18 17 16 16 16 15 15 16 16 15 14 14 14
14 13 11 11 11 10 9 9 8 9 10 9 10 10 9 10 11 11 11 9 8 10 8 6 8 8 7 8 7 7 8 8 9 9 9 9 9 9 9 7 7 6 2 3 6 7 8 9 11 12 13 14 14 14 15 16 17 16 16 20 21 17 15 20 24 24 23 21 20 21 22 22 21 20 19 19 18 18 18 17 16 14 13 13 15
14 13 11 12 13 11 9 9 9 11 11 11 12 11 10 10 9 9 10 8 7 8 7 6 7 7 6 8 9 10 10 10 10 10 10 11 10 10 10 9 9 9 8 6 6 8 10 11 12 13 14 15 15 16 16 18 20 20 17 18 21 21 20 21 23 25 26 25 23 22 21 21 22 21 20 19 17 16 16 15 13 13 14 15 16
13 12 12 13 14 12 11 11 12 13 13 13 14 13 12 10 9 8 8 7 5 5 5 5 5 6 5 7 9 10 10 11 12 12 12 12 12 11 10 10 11 10 10 9 8 9 11 12 12 15 17 17 16 16 17 19 20 21 20 20 21 22 22 24 25 26 28 27 25 23 21 20 19 18 16 14 13 12 13 14 15 15 16 17 18
13 13 12 13 13 12 13 14 15 16 14 14 15 14 13 12 11 9 8 6 5 4 5 5 6 6 7 9 9 10 10 10 11 12 12 11 11 12 11 11 12 12 12 12 11 11 12 12 12 14 16 19 19 18 18 19 19 21 22 21 22 24 25 26 26 26 27 27 25 24 24 20 17 16 16 15 16 15 15 17 17 17 19 20 20
16 16 15 15 15 14 13 13 15 16 14 15 16 15 14 14 12 10 8 6 5 6 6 7 8 9 10 12 12 10 10 10 11 11 11 11 11 11 11 12 12 13 13 13 13 13 13 13 13 14 13 15 19 21 22 21 20 22 24 24 23 24 25 26 27 27 26 26 26 26 26 23 19 19 20 19 18 17 17 20 20 20 21 22 22
19 19 18 18 18 17 15 14 15 16 15 15 17 16 15 15 13 11 9 7 6 6 8 9 10 11 11 14 14 12 9 10 11 11 11 11 11 11 12 12 12 13 13 13 14 15 16 16 17 18 16 15 16 19 21 21 21 23 26 28 28 27 27 27 27 27 27 28 28 27 27 25 22 21 21 20 19 19 19 20 22 22 23 23 24
18 18 18 18 17 17 16 13 11 12 13 14 16 17 16 14 12 11 10 9 7 7 7 9 10 11 13 14 13 12 11 11 11 10 11 11 11 12 12 12 13 13 13 14 15 16 17 19 21 22 21 21 20 18 17 18 20 22 24 27 30 31 31 30 28 27 27 27 28 29 29 28 24 22 20 19 20 22 20 18 19 21 22 23 24
15 15 15 14 13 13 13 11 9 9 9 9 11 12 11 10 8 8 9 10 11 9 8 10 10 11 13 13 12 13 14 14 13 12 11 10 10 11 12 13 13 14 14 15 16 17 18 19 21 22 22 24 25 23 21 20 21 22 23 24 26 28 30 31 30 29 27 25 26 28 28 26 23 21 19 18 19 19 17 15 15 18 20 22 23
14 14 13 11 11 10 10 9 8 7 6 7 9 10 9 8 9 11 13 14 17 16 14 14 15 14 13 15 16 17 17 15 15 15 13 11 11 12 13 14 15 16 16 17 18 19 20 20 20 20 20 22 25 26 27 25 24 24 23 23 24 25 25 26 28 30 29 25 24 25 23 22 22 18 13 14 16 16 15 15 14 16 20 23 24
12 12 12 12 11 11 10 8 8 10 10 10 11 12 13 14 15 15 15 16 18 19 17 17 17 17 17 17 17 18 18 17 16 15 14 13 13 14 15 17 18 19 19 20 21 21 21 20 20 20 21 22 23 25 27 27 26 26 25 24 25 27 27 26 25 26 27 25 24 24 22 23 24 19 12 10 12 14 17 18 17 18 22 24 25
10 11 13 14 13 13 12 10 10 12 13 14 14 13 14 15 15 15 15 15 16 17 17 17 17 17 18 18 17 16 15 13 13 14 15 15 15 17 18 20 20 19 20 21 22 22 22 20 19 20 21 22 23 24 25 24 24 25 25 25 25 25 26 25 24 25 25 24 24 24 23 22 23 21 18 14 13 13 16 17 18 19 21 22 24
11 12 14 15 14 13 12 10 10 11 11 12 13 13 13 14 14 15 16 16 16 16 16 16 16 17 16 14 13 13 12 10 11 13 15 15 16 17 19 20 20 19 19 20 21 23 22 20 20 20 21 21 22 23 22 22 23 23 24 25 25 23 24 25 25 26 26 25 25 25 25 23 20 18 17 17 16 13 11 12 14 16 17 20 21
Wind_Direction
200 196 196 193 188 176 176 193 209 206 180 178 186 173 168 177 195 209 203 191 182 176 196 237 232 225 242 254 184 182 178 205 222 220 228 222 213 170 93 77 75 68 68 68 66 67 68 68 66 71 71 74 77 76 77 77 77 78 78 80 82 84 84 83 83 80 77 75 76 76 75 74 74 75 75 76 74 74 73 72 72 71 69 68 67
201 195 195 190 183 178 178 187 198 200 186 180 187 179 176 187 198 201 181 180 175 160 188 227 217 221 241 239 209 158 154 184 209 215 218 210 206 186 118 80 75 76 80 80 76 70 66 66 66 68 69 73 77 78 79 78 81 82 82 83 83 85 84 84 85 86 86 85 85 84 83 81 81 81 80 79 77 75 74 73 71 70 70 69 68
203 195 190 187 181 179 179 189 195 192 188 184 183 182 187 189 189 189 168 167 164 145 201 233 218 229 246 206 218 226 196 152 183 209 212 205 197 172 156 88 74 73 80 82 76 73 73 72 74 77 77 77 77 80 83 85 87 87 88 89 86 86 87 87 89 91 92 90 89 88 89 89 88 88 86 85 83 81 78 75 73 71 71 70 69
200 194 194 191 184 182 178 186 191 187 192 190 185 184 186 182 174 176 167 168 173 160 212 235 235 251 129 128 190 218 222 168 165 195 196 188 184 185 196 107 80 72 76 83 78 78 84 87 86 85 83 79 78 80 83 86 88 91 93 92 91 89 89 90 91 90 89 89 90 90 91 91 92 92 91 90 89 87 82 78 75 73 72 71 72
192 191 199 195 185 186 183 186 188 190 198 190 185 181 178 181 177 180 179 179 175 176 221 223 220 236 181 135 158 191 211 192 170 177 169 175 201 208 189 140 96 80 78 84 85 85 90 96 92 85 82 81 79 77 77 80 83 89 91 92 95 97 97 96 94 93 92 92 92 93 94 93 94 94 93 91 88 85 83 80 78 75 74 73 74
194 195 201 200 190 187 183 184 188 195 198 183 181 181 182 187 183 185 188 191 186 186 209 170 163 208 174 141 135 163 190 189 184 180 167 175 197 205 193 183 152 103 89 89 95 97 98 99 94 87 84 84 81 78 75 76 81 86 91 95 98 101 103 99 98 97 96 96 96 96 97 96 96 95 92 89 86 84 82 80 78 76 75 74 75
203 205 206 207 203 200 193 186 186 194 195 191 187 181 188 186 179 183 178 185 188 186 201 185 168 163 139 126 128 157 173 178 182 172 166 178 179 192 210 206 183 148 107 100 101 108 113 106 99 95 91 89 86 82 78 75 75 78 82 86 90 93 96 97 97 96 95 97 97 97 98 99 97 94 91 90 88 86 83 80 78 77 77 78 79
209 212 212 210 209 215 218 201 186 191 193 194 187 174 183 174 167 173 164 163 176 189 206 208 193 170 134 129 144 152 153 170 180 174 178 191 189 197 205 198 189 171 138 121 104 104 127 123 111 110 104 101 95 85 78 75 73 72 73 75 81 84 88 92 93 93 94 95 97 97 97 97 95 91 90 89 87 85 82 81 82 82 82 82 81
210 210 211 210 212 216 216 209 198 195 190 183 181 182 193 184 166 162 166 173 188 195 185 165 169 171 152 153 177 172 150 162 175 184 189 189 190 194 193 193 193 180 165 148 112 100 120 130 121 115 114 116 115 97 79 75 73 71 71 71 74 78 80 84 88 91 94 96 97 97 96 96 94 92 90 88 87 86 86 87 88 87 86 84 81
205 202 202 206 215 214 208 207 201 197 195 187 183 191 202 198 178 171 182 184 191 186 155 147 152 146 155 161 183 181 158 158 169 180 183 182 188 187 188 193 193 188 180 163 131 110 111 124 124 117 115 113 116 122 107 90 81 72 69 68 70 73 76 79 85 92 96 96 96 97 98 97 96 95 93 91 90 90 91 91 90 89 86 84 82
200 200 200 205 211 211 207 207 205 202 205 201 192 193 202 200 188 185 192 179 177 174 152 161 167 158 167 154 161 168 154 159 163 164 167 176 194 193 189 191 186 186 180 164 143 132 129 128 124 116 112 114 119 128 131 126 114 88 70 68 68 69 72 77 86 94 96 96 98 101 101 101 100 99 97 95 94 93 93 92 90 88 86 82 80
198 201 199 203 207 209 209 208 208 208 209 211 201 196 204 200 189 188 191 171 166 175 169 177 184 174 161 141 150 158 147 160 162 159 168 178 192 194 186 184 178 180 176 160 150 150 146 136 131 121 112 118 123 122 128 131 124 116 98 82 71 67 69 78 89 96 98 100 102 104 105 105 104 102 99 96 94 93 92 92 91 89 85 82 78
193 197 196 202 206 207 209 209 212 213 210 211 205 201 209 205 194 189 188 181 169 170 173 181 181 166 157 146 148 149 144 155 161 163 170 168 169 168 171 171 164 166 165 155 157 160 143 133 137 132 126 126 121 113 124 132 126 121 113 106 94 74 71 78 90 98 103 106 107 108 109 109 108 104 101 97 93 91 88 88 89 88 86 82 77
193 194 198 203 205 204 209 213 213 213 207 206 206 200 202 201 198 192 184 186 183 171 171 178 172 160 156 147 141 142 144 147 151 157 153 150 156 153 150 153 149 149 152 151 162 169 148 134 138 135 132 133 134 129 133 142 133 122 118 119 129 113 84 85 94 101 108 111 111 110 111 111 108 103 99 96 94 93 90 87 87 87 85 81 73
192 195 202 202 206 207 212 216 212 211 205 201 204 200 200 197 193 188 175 174 178 170 173 180 175 160 151 144 141 138 139 140 138 138 136 137 144 136 132 148 147 143 145 144 153 161 146 132 137 135 131 134 139 136 141 155 144 132 129 123 132 135 117 107 107 108 112 115 115 114 113 110 105 101 99 97 94 91 89 87 87 84 81 79 74
187 197 203 200 207 208 207 211 208 209 200 197 209 208 202 197 187 176 162 165 174 169 177 189 184 169 157 153 150 139 141 153 140 129 127 128 129 126 131 145 145 142 141 139 148 155 142 135 140 134 129 129 128 131 143 159 156 149 141 126 128 136 138 133 123 118 118 120 122 122 115 106 103 107 110 104 94 88 86 84 86 86 84 82 79
189 198 202 203 208 204 202 204 202 205 203 204 212 198 189 190 183 175 167 172 180 171 178 195 192 185 174 159 159 155 155 160 146 127 120 121 125 128 136 143 147 151 149 145 152 153 145 146 145 140 141 142 141 138 139 151 167 164 150 133 124 129 149 154 143 131 128 131 133 131 119 102 105 116 118 107 97 93 90 90 93 93 89 83 80
192 198 203 207 209 205 202 196 190 199 200 199 200 185 183 186 178 179 181 182 184 177 179 191 190 187 179 160 163 169 159 156 149 134 122 118 125 130 135 142 144 151 155 153 153 151 157 163 146 144 153 163 173 158 138 143 158 160 160 148 131 130 151 165 162 151 147 146 142 142 134 112 113 123 125 113 105 105 104 103 100 93 86 82 82
192 197 199 200 202 198 190 182 182 190 188 188 193 189 186 185 179 182 190 187 183 186 186 182 186 187 174 161 158 158 162 162 154 146 136 127 130 131 134 140 139 141 144 146 147 149 158 161 149 147 140 148 160 163 160 161 153 152 162 157 142 132 140 160 165 159 157 156 148 151 157 141 134 135 131 123 117 116 112 106 99 91 86 83 81
195 193 184 183 192 183 171 174 178 178 179 182 185 186 186 186 184 183 192 195 186 192 195 173 177 187 171 160 152 150 166 167 154 150 149 141 139 139 141 143 140 133 128 129 133 141 145 140 143 146 138 140 151 155 156 159 159 160 160 146 135 128 131 146 155 151 149 147 139 138 137 131 129 129 128 126 120 115 110 105 98 92 87 82 78
187 185 172 176 187 172 163 175 176 169 173 175 173 178 181 184 192 192 198 206 194 191 193 174 174 183 169 165 163 155 162 165 160 160 159 149 146 155 156 148 140 134 132 128 122 132 138 136 136 135 136 143 151 157 146 139 151 155 145 133 130 132 135 141 142 137 134 132 129 129 126 123 124 125 124 121 117 113 110 106 99 92 86 81 78
175 179 174 180 184 170 168 174 166 157 162 171 172 172 170 175 191 200 201 208 204 197 196 189 184 180 172 177 178 163 158 163 168 170 166 154 152 161 159 152 150 146 140 129 123 130 135 137 133 124 129 136 136 144 138 128 135 137 129 126 130 133 132 132 132 130 130 130 129 129 128 127 127 125 122 119 116 113 108 102 97 92 89 85 82
175 178 175 178 177 169 171 168 155 150 161 164 160 163 164 167 175 175 177 188 193 194 198 200 195 179 175 185 182 169 160 164 168 170 173 166 158 156 149 149 157 146 136 125 120 126 132 137 139 129 131 132 127 129 128 127 130 129 125 122 124 126 125 125 127 129 130 130 129 129 130 129 127 124 122 119 116 111 106 102 98 95 91 87 84
177 177 173 171 168 157 153 155 148 145 157 148 132 154 185 172 173 164 163 168 167 179 189 193 191 182 182 188 182 173 166 168 165 165 174 174 165 157 147 148 148 136 135 126 114 116 127 138 145 139 135 129 125 128 131 134 134 131 126 122 121 122 123 126 128 130 132 131 132 133 133 131 128 127 124 121 118 114 110 106 101 96 91 85 80
176 177 170 163 161 151 145 155 151 146 159 150 146 173 187 178 193 171 168 165 158 169 175 174 178 181 188 194 184 175 173 183 176 160 163 163 161 156 149 150 144 135 141 132 119 118 119 129 139 139 138 137 136 136 137 138 135 133 129 126 126 126 127 132 133 135 137 138 139 138 135 133 130 127 124 120 117 112 106 102 97 91 86 81 77
170 171 161 156 165 159 153 164 162 160 170 163 163 173 165 174 215 177 170 170 164 169 164 167 173 172 180 185 182 175 171 180 179 162 157 155 157 160 156 152 143 141 148 137 126 128 127 129 133 129 124 130 143 144 142 140 135 135 137 133 134 135 136 138 140 141 141 140 139 136 133 132 128 124 120 116 111 106 101 97 92 86 81 79 75
168 171 163 168 179 168 163 172 174 182 185 174 176 167 147 174 212 169 164 166 162 163 155 160 166 164 171 172 171 170 167 170 167 160 159 152 153 164 164 153 144 145 147 135 126 130 137 143 141 128 118 125 145 149 143 143 141 140 143 142 140 142 144 146 146 146 144 141 139 136 133 129 125 122 118 115 111 107 106 99 92 87 78 78 74
177 179 172 180 180 167 176 187 188 200 187 168 170 153 145 175 184 149 149 143 139 142 137 141 149 162 174 167 162 166 168 169 161 153 153 148 152 166 167 154 147 148 149 143 134 132 144 148 138 142 147 131 146 154 148 147 148 148 149 150 149 148 149 150 150 149 146 144 141 136 132 129 126 124 121 119 116 111 110 101 92 86 76 76 77
184 180 167 166 163 165 183 188 184 177 153 144 151 147 153 172 147 133 133 128 131 130 122 126 134 152 168 159 157 165 169 166 159 155 155 156 164 168 161 154 152 152 152 149 145 148 161 155 147 161 189 177 154 156 155 153 153 156 157 157 156 153 152 153 152 150 147 144 141 136 135 134 132 132 128 122 118 110 108 105 95 86 76 73 74
178 168 160 155 158 171 174 166 165 153 138 138 143 142 147 141 126 129 133 128 127 122 118 131 132 140 152 148 152 164 164 159 161 163 161 160 159 154 155 161 162 159 155 153 156 164 167 159 160 173 186 192 176 164 159 160 160 162 163 163 163 159 156 155 154 151 149 146 144 143 144 145 143 139 132 121 114 109 105 104 94 82 73 67 64
165 156 162 166 168 171 162 155 155 144 139 144 141 137 142 138 135 143 130 113 116 124 134 143 132 141 147 146 155 166 161 159 168 174 168 161 150 146 158 169 166 165 159 157 161 168 171 166 170 179 175 173 182 176 167 170 175 173 167 167 168 165 161 159 157 156 155 155 155 156 157 155 151 141 130 117 106 102 98 94 87 73 59 49 42
163 155 164 173 164 153 148 149 147 142 146 147 138 140 147 134 129 135 120 109 114 119 114 108 118 155 153 150 163 170 165 164 171 166 150 143 141 149 167 173 170 173 167 164 165 160 168 175 172 175 162 159 181 193 184 181 188 182 172 173 176 172 168 165 164 164 165 168 168 168 169 166 159 150 133 118 90 82 83 68 53 41 30 23 17
163 155 164 165 145 137 139 141 146 148 146 143 138 141 136 119 116 128 116 112 121 114 110 114 130 170 151 154 162 163 169 169 159 145 131 121 128 149 168 169 170 177 170 173 174 159 154 170 173 178 164 161 183 210 211 195 194 188 177 179 184 180 177 175 174 176 178 181 184 187 189 191 190 196 212 231 285 332 355 1 2 3 5 4 2
157 152 165 155 136 140 141 139 151 150 143 145 143 138 133 129 142 138 113 114 140 131 122 129 148 149 143 155 154 154 165 159 145 138 129 127 134 138 157 166 168 182 182 180 180 173 171 172 173 185 181 172 190 215 223 207 202 197 184 186 191 188 187 189 187 190 193 193 199 205 208 216 223 230 248 267 283 298 308 318 329 338 347 352 351
150 154 165 149 137 146 145 145 153 146 146 151 139 137 152 159 148 129 117 144 149 117 114 132 138 138 146 151 146 150 158 148 140 146 144 140 145 155 163 159 159 176 197 185 183 184 188 185 180 191 191 179 193 217 225 218 221 218 201 195 198 196 196 200 202 205 207 206 211 218 222 228 236 245 256 268 278 286 294 303 315 325 334 340 342
149 159 162 146 143 147 145 148 147 143 153 152 137 145 165 156 140 130 134 152 128 104 116 139 135 139 145 144 146 154 155 144 142 154 156 152 161 175 176 165 169 183 185 177 195 214 194 184 184 198 200 181 188 220 228 219 222 226 218 204 201 207 206 200 205 216 215 215 221 225 231 237 245 255 262 269 276 282 289 297 305 314 323 330 332
153 159 154 146 147 147 145 148 144 146 156 150 143 154 153 138 135 135 135 132 121 122 132 128 127 133 127 127 142 149 146 145 150 153 163 172 161 163 179 184 188 201 187 162 182 223 202 184 182 200 214 190 183 211 230 227 217 214 220 218 210 215 213 206 216 221 212 218 232 236 239 245 252 259 266 271 276 280 286 292 299 306 313 318 320
154 153 150 150 150 148 148 149 148 150 153 149 148 150 143 137 136 140 140 133 137 151 135 124 125 119 118 127 139 142 144 157 164 160 174 187 166 151 179 193 197 218 212 176 168 180 191 190 186 200 220 210 191 203 226 238 227 205 212 227 228 217 210 217 231 234 231 240 244 243 246 253 258 262 266 271 274 279 283 286 292 298 304 309 314
155 151 156 156 150 149 149 151 156 153 149 148 150 147 143 142 144 150 150 142 142 142 134 135 138 128 135 145 139 146 159 171 176 175 178 182 184 183 184 193 203 219 242 215 193 187 191 201 205 205 215 221 209 200 216 238 240 213 208 222 231 222 213 225 231 233 243 251 249 251 257 260 261 262 264 269 272 276 280 284 289 294 299 306 314
153 150 162 160 148 149 152 154 158 154 149 151 152 151 153 155 157 159 154 148 149 145 142 150 147 141 154 158 156 169 177 182 187 189 187 186 195 201 193 189 196 194 197 215 212 217 217 219 225 218 214 222 223 210 209 222 227 220 210 216 226 227 224 230 233 234 242 251 255 259 262 262 261 260 263 268 271 274 277 282 287 291 296 305 314
153 150 162 160 149 148 151 153 156 157 160 163 162 159 162 162 160 158 155 155 164 159 152 159 160 152 160 175 184 190 192 199 201 199 198 198 202 208 205 205 209 204 197 198 211 225 226 227 232 227 220 225 231 228 222 219 224 229 225 219 224 229 227 229 234 239 244 250 255 258 260 261 260 257 258 263 268 274 275 278 283 288 292 299 308
152 152 162 158 149 148 151 153 159 168 173 172 168 168 169 165 158 160 164 163 172 177 169 184 192 172 178 208 211 207 208 211 216 219 216 213 215 217 218 221 224 223 221 224 231 232 232 237 240 235 229 227 228 230 227 225 229 235 233 227 226 229 229 229 233 241 246 248 251 254 258 259 255 251 254 262 270 275 276 278 283 286 290 295 304
151 152 157 156 155 158 160 159 162 173 179 175 173 176 177 172 165 167 175 169 177 204 204 213 224 209 210 231 234 230 229 226 223 225 227 229 231 231 235 236 233 234 236 239 239 237 239 248 252 249 244 237 233 232 230 229 231 235 236 236 234 232 231 231 231 235 240 245 247 252 259 262 261 260 264 270 270 270 275 281 283 285 289 295 304
157 156 156 159 162 164 168 172 174 179 183 178 179 182 183 182 179 177 177 170 182 220 229 226 234 235 231 236 240 240 240 241 240 237 235 238 240 242 246 247 245 245 248 250 250 248 248 252 255 259 258 250 245 243 240 237 238 240 239 237 238 238 236 236 234 231 233 240 245 249 254 260 263 265 269 271 268 266 273 281 283 287 291 297 303
162 162 163 165 164 162 168 178 185 187 187 184 186 189 189 190 191 189 184 178 186 218 239 242 248 259 258 253 256 260 254 246 246 249 250 250 250 251 252 252 253 254 256 260 263 262 261 259 257 256 255 254 254 251 246 243 243 246 245 241 241 242 240 241 243 242 241 242 243 244 245 249 254 257 262 268 268 266 270 276 280 285 289 293 296
164 165 168 170 167 166 170 177 184 188 189 188 189 193 197 201 206 208 208 212 216 226 251 264 266 271 272 269 273 275 268 261 256 253 255 259 262 264 264 263 265 265 264 267 269 270 270 267 263 259 254 253 255 253 249 247 246 248 249 247 245 245 246 246 246 249 249 245 244 243 239 240 246 248 251 259 264 265 269 273 277 280 283 285 288
174 175 175 173 172 175 179 181 178 175 175 178 184 192 202 211 224 244 256 261 260 256 262 274 278 278 278 283 287 279 274 277 277 266 258 259 265 270 274 276 277 277 275 276 278 279 278 274 269 265 259 255 254 252 250 249 247 245 247 249 248 247 250 250 247 248 250 246 244 243 236 236 243 247 247 247 248 255 266 272 274 277 279 282 286
175 176 172 167 169 178 184 183 185 187 182 185 194 203 214 228 248 268 276 276 275 274 271 272 276 277 277 283 286 281 279 283 283 278 272 264 256 259 269 278 281 282 282 283 284 282 279 277 275 274 270 263 257 254 253 253 253 252 253 253 250 246 248 249 246 246 248 244 242 242 239 238 240 240 241 237 236 246 261 265 265 269 276 283 289
172 175 177 178 182 194 202 202 211 222 223 222 224 227 236 247 258 264 266 264 267 271 272 272 275 276 276 280 283 282 283 283 279 279 279 273 266 266 272 277 279 282 283 283 283 281 276 276 279 280 277 271 265 261 258 257 258 259 260 262 260 254 251 249 248 251 254 250 245 247 247 241 236 235 239 242 242 247 251 254 258 266 274 280 285
181 191 198 201 205 211 217 221 223 224 226 231 237 240 244 252 258 260 264 264 264 267 270 272 276 279 281 284 283 283 287 283 273 271 274 274 273 273 274 275 277 281 282 282 283 281 275 272 276 276 274 272 270 266 262 261 262 263 265 267 265 260 257 256 258 261 260 252 250 253 250 243 243 246 246 242 237 238 245 255 266 274 278 281 283
196 204 208 211 213 217 222 228 229 229 231 235 239 242 245 251 255 257 262 265 267 269 272 274 279 281 285 290 290 289 294 292 282 278 277 277 276 275 275 276 279 281 281 282 283 280 274 269 269 270 271 273 271 268 265 264 265 265 264 262 261 262 265 265 263 262 258 253 254 255 248 244 249 251 244 237 234 236 249 266 278 282 279 279 283